Weather History for 71590 - January, 2014

Change the Weather History Date:

Saturday, January 4, 2014

  Actual Average Record
Temperature  
Mean Temperature -18 °F -  
Max Temperature 1 °F - - ()
Min Temperature -36 °F - - ()
Degree Days  
Heating Degree Days 82    
Moisture  
Dew Point -23 °F    
Average Humidity 70    
Maximum Humidity 79    
Minimum Humidity 48    
Precipitation  
Precipitation 0.04 in - - ()
Sea Level Pressure  
Sea Level Pressure 30.26 in    
Wind  
Wind Speed 1 mph ()    
Max Wind Speed 5 mph    
Max Gust Speed -    
T = Trace of Precipitation, MM = Missing Value Source: Averaged Metar Reports

Daily Weather History Graph

Daily Weather History Graph

Search for Another Location

Airport or City:

Trip Planner

Search our weather history database for the weather conditions in past years. The results will help you decide how hot, cold, wet, or windy it might be!

Date:

Astronomy

Jan. 04, 2014 Rise Set
Actual Time 8:20 AM AST 4:56 PM AST
Civil Twilight 7:45 AM AST 5:31 PM AST
Nautical Twilight 7:06 AM AST 6:10 PM AST
Astronomical Twilight 6:29 AM AST 6:47 PM AST
Moon 10:07 AM AST (1/4) 9:30 PM AST (1/4)
Length of Visible Light 9h 46m
Length of Day
8h 35m
Waxing Crescent, 15% of the Moon is Illuminated
Jan 4
Waxing Crescent
Jan 7
First Quarter
Jan 16
Full
Jan 24
Last Quarter
Jan 30
New

Hourly Weather History & Observations

Time (AST) Temp. Windchill Dew Point Humidity Pressure Visibility Wind Dir Wind Speed Gust Speed Precip Events Conditions
12:00 AM -29.7 °F - -36.4 °F 70% 30.24 in - Calm Calm - N/A   Unknown
1:00 AM -29.9 °F - -36.8 °F 70% 30.23 in - Calm Calm - N/A   Unknown
2:00 AM -32 °F - -40 °F 48% 30.25 in - NNW 2.3 mph - -  
2:00 AM -32.4 °F - -39.8 °F 67% 30.25 in - NNW 2.3 mph - N/A   Unknown
3:00 AM -34.1 °F - -41.6 °F 66% 30.27 in - North 1.2 mph - N/A   Unknown
4:00 AM -33.9 °F - -40.7 °F 69% 30.29 in - North 1.2 mph - N/A   Unknown
5:00 AM -35.3 °F - -42.9 °F 66% 30.30 in - Calm Calm - N/A   Unknown
6:00 AM -35.9 °F - -43.4 °F 66% 30.31 in - Calm Calm - N/A   Unknown
7:00 AM -35.9 °F - -43.2 °F 67% 30.34 in - Calm Calm - N/A   Unknown
8:00 AM -34 °F - -41 °F 50% 30.34 in - Calm Calm - -  
8:00 AM -33.9 °F - -41.3 °F 67% 30.34 in - Calm Calm - N/A   Unknown
9:00 AM -30.1 °F - -37.1 °F 69% 30.35 in - Calm Calm - N/A   Unknown
10:00 AM -24.3 °F - -31.0 °F 71% 30.36 in - Calm Calm - N/A   Unknown
11:00 AM -18.8 °F - -25.2 °F 72% 30.35 in - ESE 1.2 mph - N/A   Unknown
12:00 PM -12.3 °F - -17.5 °F 78% 30.32 in - ESE 1.2 mph - N/A   Unknown
1:00 PM -6.3 °F - -14.6 °F 67% 30.30 in - East 1.2 mph - N/A   Unknown
2:00 PM -3 °F - -10 °F 60% 30.27 in - SE 3.5 mph - -  
2:00 PM -1.3 °F -9.3 °F -9.8 °F 67% 30.27 in - SE 3.5 mph - N/A   Unknown
3:00 PM -1.8 °F - -7.2 °F 78% 30.26 in - ESE 1.2 mph - 0.02 in   Unknown
4:00 PM -0.9 °F - -6.0 °F 79% 30.26 in - SE 2.3 mph - 0.01 in   Unknown
5:00 PM -0.8 °F -8.7 °F -5.8 °F 79% 30.24 in - SE 3.5 mph - 0.01 in   Unknown
6:00 PM -0.8 °F -8.7 °F -5.8 °F 79% 30.22 in - SE 3.5 mph - N/A   Unknown
7:00 PM -0.2 °F - -5.3 °F 79% 30.21 in - SSE 2.3 mph - N/A   Unknown
8:00 PM 0 °F - -5 °F 71% 30.17 in - SE 4.6 mph - -  
8:00 PM 0.3 °F -9.5 °F -4.7 °F 79% 30.17 in - SE 4.6 mph - N/A   Unknown
9:00 PM 0.7 °F - -4.5 °F 79% 30.18 in - SE 2.3 mph - N/A   Unknown
10:00 PM 1.6 °F - -4.2 °F 77% 30.17 in - SE 1.2 mph - N/A   Unknown
11:00 PM 1.9 °F - -3.5 °F 78% 30.16 in - SE 2.3 mph - N/A   Unknown